Location: Dampvalley
(47.9094°N, 6.1967°E)
Time: 03:35:13
(UTC+00:00)

UNISAT 6 - Visible Passes

Search period start: 29 November 2021 00:00
Search period end: 09 December 2021 00:00
Orbit: 605 x 688 km, 97.7° (Epoch: 28 November)

Date Brightness Start Highest point End Pass type
(mag) Time Alt. Az. Time Alt. Az. Time Alt. Az.
29 Nov ? 05:15:53 10° SSE 05:20:09 64° ENE 05:24:24 10° N visible
30 Nov ? 04:07:10 10° E 04:09:31 15° ENE 04:11:52 10° NNE visible
30 Nov ? 05:41:24 10° S 05:45:42 71° WSW 05:49:58 10° NNW visible
01 Dec ? 04:31:23 10° ESE 04:34:50 24° ENE 04:38:14 10° NNE visible
01 Dec ? 06:07:18 10° SSW 06:11:20 38° W 06:15:21 10° NNW visible
02 Dec ? 04:56:12 10° SE 05:00:13 40° ENE 05:04:13 10° N visible
02 Dec ? 18:28:09 11° S 18:28:09 11° S 18:28:24 10° S visible
03 Dec ? 05:21:25 10° SSE 05:25:41 73° ENE 05:29:57 10° N visible
03 Dec ? 18:53:56 11° SSW 18:53:56 11° SSW 18:54:03 10° SSW visible
04 Dec ? 04:12:21 10° E 04:15:01 16° ENE 04:17:39 10° NNE visible
04 Dec ? 05:47:01 10° S 05:51:16 61° W 05:55:29 10° NNW visible
05 Dec ? 04:36:45 10° ESE 04:40:19 27° ENE 04:43:54 10° N visible
05 Dec ? 06:13:02 10° SSW 06:16:55 33° W 06:20:48 10° NNW visible
05 Dec ? 18:07:44 12° SSE 18:07:44 12° SSE 18:08:07 10° SSE visible
06 Dec ? 05:01:39 10° SE 05:05:44 46° ENE 05:09:49 10° N visible
06 Dec ? 18:33:30 13° S 18:33:30 13° S 18:34:04 10° S visible
07 Dec ? 03:54:04 10° ENE 03:55:15 11° ENE 03:56:24 10° NE visible
07 Dec ? 05:26:58 10° SSE 05:31:13 84° ENE 05:35:30 10° NNW visible
07 Dec ? 18:59:16 12° SSW 18:59:16 12° SSW 18:59:37 10° SSW visible
08 Dec ? 04:17:34 10° ESE 04:20:29 18° ENE 04:23:24 10° NNE visible
08 Dec ? 05:52:39 10° S 05:56:49 52° W 06:00:59 10° NNW visible
08 Dec ? 17:47:18 11° SSE 17:47:18 11° SSE 17:47:33 10° SSE visible
